Terug naar catalogus

MORELOS 3

ActiefCommunicatieGEO
NORAD 40946·PAYLOAD·🇲🇽 Mexico

Gelanceerd Oct 2, 2015 vanaf Cape Canaveral Space Force Station

Loading…

TLE

VersSource: Space-Track

Epoch: Sep 14, 2026, 21:49 UTC

1 40946U 15056A   26257.90917403 -.00000049  00000-0  00000-0 0  9999
2 40946   3.2684  17.2474 0003221 185.9153   4.9320  1.00272664 40182

Volg MORELOS 3 in realtime met AllMySat

Download on the App Store